Waarnemingen

Advertentie
Mijn weer
Gilze-Rijen, Nederland (6350): temperatuur & dauwpunt: 14.07.2018 18:00:00 - 20.07.2018 18:00:00 (CEST)Gilze-Rijen, Nederland (6350): temperatuur 5cm: 14.07.2018 18:00:00 - 20.07.2018 18:00:00 (CEST)Gilze-Rijen, Nederland (6350): windsnelheid & windstoten: 14.07.2018 18:00:00 - 20.07.2018 18:00:00 (CEST)Gilze-Rijen, Nederland (6350): windrichting: 14.07.2018 18:00:00 - 20.07.2018 18:00:00 (CEST)Gilze-Rijen, Nederland (6350): luchtdruk: 14.07.2018 18:00:00 - 20.07.2018 18:00:00 (CEST)Gilze-Rijen, Nederland (6350): zicht: 14.07.2018 18:00:00 - 20.07.2018 18:00:00 (CEST)Gilze-Rijen, Nederland (6350): neerslag: 14.07.2018 18:00:00 - 20.07.2018 18:00:00 (CEST)
Datum & Tijd tt [°C] td [°C] tt 5cm [°C] ff [km/u] ff [kn] fx [km/u] fx [kn] dd ppp [hPa] vv [km] rr [mm]
20.07.2018 18:00:00 25,5 10,1 27,3 15 8 29 16 NNW 1012,4 10 0,0
20.07.2018 17:00:00 26,7 9,4 29,3 9 5 29 16 - 1012,7 10 0,0
20.07.2018 16:00:00 26,6 8,2 30,2 16 9 29 16 W 1013,5 10 0,0
20.07.2018 15:00:00 27,1 9,2 30,1 13 7 25 14 WNW 1013,7 10 0,0
20.07.2018 14:00:00 26,0 9,1 30,2 15 8 32 18 - 1014,0 10 0,0
20.07.2018 13:00:00 25,6 10,2 29,4 13 7 29 16 N 1014,4 10 0,0
20.07.2018 12:00:00 24,5 11,9 26,8 11 6 22 12 N 1014,7 10 0,0
20.07.2018 11:00:00 22,8 11,7 25,0 8 4 18 10 NNW 1014,9 10 0,0
20.07.2018 10:00:00 21,1 13,4 23,5 13 7 18 10 N 1015,2 10 0,0
20.07.2018 09:00:00 19,6 13,6 21,2 11 6 14 8 NNW 1015,3 10 0,0
20.07.2018 08:00:00 17,5 14,2 18,1 8 4 14 8 N 1015,3 8 0,0
20.07.2018 07:00:00 11,8 11,4 8,7 2 1 7 4 WZW 1015,4 8 0,0
20.07.2018 06:00:00 9,0 8,4 3,3 2 1 7 4 W 1015,7 9 0,0
20.07.2018 05:00:00 10,4 9,8 3,6 2 1 4 2 W 1016,0 0,4 0,0
20.07.2018 04:00:00 12,1 11,0 5,3 4 2 7 4 WNW 1016,1 7 0,0
20.07.2018 03:00:00 12,9 11,6 6,3 4 2 7 4 W 1016,4 10 0,0
20.07.2018 02:00:00 13,6 11,7 7,0 4 2 7 4 - 1016,8 10 0,0
20.07.2018 01:00:00 14,4 12,2 8,6 5 3 11 6 NNO 1017,0 10 0,0
20.07.2018 00:00:00 17,4 12,0 16,1 8 4 18 10 N 1017,2 10 0,0
19.07.2018 23:00:00 19,0 10,7 18,1 13 7 18 10 N 1017,4 10 0,0
19.07.2018 22:00:00 20,8 9,4 19,5 11 6 22 12 N 1017,4 10 0,0
19.07.2018 21:00:00 22,2 8,1 21,8 16 9 29 16 N 1017,4 10 0,0
19.07.2018 20:00:00 23,8 5,9 24,4 21 11 29 16 N 1017,1 10 0,0
19.07.2018 19:00:00 24,9 7,5 26,5 18 10 32 18 NNW 1017,1 10 0,0
19.07.2018 18:00:00 25,9 8,9 27,5 11 6 25 14 NNW 1017,2 10 0,0
19.07.2018 17:00:00 26,2 10,1 27,5 13 7 22 12 NW 1017,6 10 0,0
19.07.2018 16:00:00 26,0 10,2 28,3 9 5 22 12 NNO 1018,0 10 0,0
19.07.2018 15:00:00 26,6 10,3 28,6 8 4 22 12 NNW 1018,0 10 0,0
19.07.2018 14:00:00 25,5 10,6 27,5 9 5 18 10 - 1018,3 10 0,0
19.07.2018 13:00:00 25,5 11,0 27,9 11 6 18 10 NNO 1018,5 10 0,0
19.07.2018 12:00:00 25,0 11,3 27,3 11 6 22 12 - 1018,7 10 0,0
19.07.2018 11:00:00 23,8 12,2 26,8 13 7 22 12 N 1018,8 10 0,0
19.07.2018 10:00:00 22,6 13,5 24,8 13 7 22 12 NNW 1019,0 10 0,0
19.07.2018 09:00:00 20,4 14,5 22,1 8 4 18 10 N 1019,1 10 0,0
19.07.2018 08:00:00 18,3 14,9 18,3 5 3 11 6 NNW 1018,9 10 0,0
19.07.2018 07:00:00 13,9 13,1 11,9 2 1 7 4 W 1018,9 6 0,0
19.07.2018 06:00:00 13,4 12,4 9,3 4 2 11 6 - 1018,6 6 0,0
19.07.2018 05:00:00 11,4 10,3 7,6 9 5 11 6 W 1018,8 10 0,0
19.07.2018 04:00:00 12,8 10,7 7,1 4 2 7 4 W 1018,9 10 0,0
19.07.2018 03:00:00 12,9 10,9 9,7 8 4 11 6 W 1019,0 10 0,0
19.07.2018 02:00:00 15,4 11,6 8,3 2 1 7 4 NO 1019,1 10 0,0
19.07.2018 01:00:00 15,1 10,9 9,6 5 3 11 6 NNO 1019,1 10 0,0
19.07.2018 00:00:00 17,3 10,8 15,8 8 4 14 8 N 1019,2 10 0,0
18.07.2018 23:00:00 18,8 10,8 16,9 8 4 18 10 NNW 1019,1 10 0,0
18.07.2018 22:00:00 19,7 10,4 18,8 13 7 25 14 NNW 1018,9 10 0,0
18.07.2018 21:00:00 21,6 11,1 21,4 18 10 29 16 NNW 1018,6 10 0,0
18.07.2018 20:00:00 23,7 11,4 24,7 18 10 32 18 NNW 1018,2 10 0,0
18.07.2018 19:00:00 24,7 11,1 26,6 16 9 29 16 NNW 1018,0 10 0,0
18.07.2018 18:00:00 25,4 9,1 27,9 11 6 18 10 N 1018,0 10 0,0
18.07.2018 17:00:00 24,9 9,0 26,3 9 5 18 10 N 1018,3 10 0,0
18.07.2018 16:00:00 25,0 8,8 27,4 4 2 32 18 - 1018,3 10 0,0
18.07.2018 15:00:00 24,8 8,4 26,1 2 1 14 8 WZW 1018,5 10 0,0
18.07.2018 14:00:00 24,1 8,8 26,5 8 4 18 10 - 1018,7 10 0,0
18.07.2018 13:00:00 23,4 9,7 25,9 5 3 22 12 - 1018,9 10 0,0
18.07.2018 12:00:00 24,1 9,0 28,1 13 7 25 14 - 1018,9 10 0,0
18.07.2018 11:00:00 23,0 10,1 25,7 11 6 25 14 Z 1019,1 10 0,0
18.07.2018 10:00:00 22,3 9,8 24,5 9 5 18 10 ZZW 1019,1 10 0,0
18.07.2018 09:00:00 20,4 9,8 22,0 9 5 14 8 ZZW 1018,9 10 0,0
18.07.2018 08:00:00 17,9 11,2 18,0 8 4 11 6 Z 1018,9 10 0,0
18.07.2018 07:00:00 13,7 11,2 12,0 5 3 7 4 Z 1018,6 10 0,0
18.07.2018 06:00:00 11,1 9,9 4,7 5 3 7 4 ZZW 1018,5 10 0,0
18.07.2018 05:00:00 11,0 9,6 5,6 5 3 7 4 ZZW 1018,5 10 0,0
18.07.2018 04:00:00 10,6 9,1 6,0 4 2 7 4 Z 1018,4 10 0,0
18.07.2018 03:00:00 11,9 10,4 7,3 5 3 7 4 Z 1018,4 10 0,0
18.07.2018 02:00:00 12,3 10,0 7,1 2 1 7 4 - 1018,5 10 0,0
18.07.2018 01:00:00 13,1 10,5 6,8 2 1 4 2 Z 1018,4 10 0,0
18.07.2018 00:00:00 14,1 10,7 8,5 2 1 7 4 ZZW 1018,3 10 0,0
17.07.2018 23:00:00 16,0 10,6 11,1 2 1 14 8 - 1018,1 10 0,0
17.07.2018 22:00:00 18,5 10,5 17,5 9 5 22 12 NW 1017,8 10 0,0
17.07.2018 21:00:00 20,6 10,2 20,6 13 7 29 16 NW 1017,4 10 0,0
17.07.2018 20:00:00 22,1 10,9 22,7 21 11 36 19 WNW 1016,9 10 0,0
17.07.2018 19:00:00 22,6 9,1 24,1 24 13 40 21 W 1016,5 10 0,0
17.07.2018 18:00:00 23,6 10,2 25,5 29 16 43 23 WNW 1016,3 10 0,0
17.07.2018 17:00:00 24,5 11,2 27,5 26 14 40 21 WNW 1015,9 10 0,0
17.07.2018 16:00:00 25,9 12,5 27,5 22 12 40 21 W 1015,6 10 0,0
17.07.2018 15:00:00 26,3 13,3 28,0 15 8 29 16 W 1015,4 10 0,0
17.07.2018 14:00:00 23,9 14,0 24,9 15 8 29 16 WZW 1015,6 10 0,0
17.07.2018 13:00:00 25,4 13,8 29,2 16 9 25 14 ZW 1015,5 10 0,0
17.07.2018 12:00:00 24,2 14,9 26,8 16 9 36 19 WZW 1015,3 10 0,0
17.07.2018 11:00:00 23,9 15,8 25,1 13 7 25 14 ZW 1015,1 10 0,0
17.07.2018 10:00:00 21,8 14,6 23,1 13 7 25 14 ZW 1014,7 10 0,0
17.07.2018 09:00:00 20,8 13,6 21,3 11 6 22 12 WZW 1014,3 10 0,0
17.07.2018 08:00:00 19,1 12,1 19,1 9 5 18 10 WZW 1014,0 10 0,0
17.07.2018 07:00:00 17,2 12,9 16,3 9 5 14 8 ZW 1013,6 10 0,0
17.07.2018 06:00:00 16,4 14,0 14,6 9 5 14 8 ZW 1013,5 10 0,0
17.07.2018 05:00:00 16,8 14,8 16,2 5 3 14 8 ZZW 1013,2 10 0,0
17.07.2018 04:00:00 16,8 14,9 16,1 11 6 18 10 ZW 1013,2 10 0,0
17.07.2018 03:00:00 16,9 15,8 16,3 5 3 11 6 W 1013,1 10 0,0
17.07.2018 02:00:00 18,6 16,0 18,2 5 3 22 12 - 1013,1 10 0,5
17.07.2018 01:00:00 19,9 14,8 19,2 13 7 18 10 NNO 1013,3 10 0,0
17.07.2018 00:00:00 20,1 15,2 19,2 15 8 25 14 NNW 1013,6 10 0,0
16.07.2018 23:00:00 21,8 12,8 21,5 8 4 18 10 ZW 1013,6 10 0,0
16.07.2018 22:00:00 22,3 12,6 21,9 11 6 29 16 W 1012,9 10 0,0
16.07.2018 21:00:00 23,5 12,7 23,4 21 11 36 19 WZW 1012,8 10 0,0
16.07.2018 20:00:00 28,6 9,1 29,3 9 5 18 10 N 1011,7 10 0,0
16.07.2018 19:00:00 29,3 7,5 31,0 15 8 25 14 NNO 1011,5 10 0,0
16.07.2018 18:00:00 30,1 9,0 32,4 13 7 29 16 NNO 1011,8 10 0,0
16.07.2018 17:00:00 29,8 8,7 33,4 13 7 22 12 - 1012,0 10 0,0
16.07.2018 16:00:00 30,5 8,3 32,2 13 7 25 14 N 1012,3 10 0,0
16.07.2018 15:00:00 31,0 8,0 34,1 11 6 32 18 - 1012,6 10 0,0
16.07.2018 14:00:00 30,6 8,2 34,3 8 4 25 14 O 1013,1 10 0,0
16.07.2018 13:00:00 29,1 7,3 33,2 13 7 32 18 - 1013,5 10 0,0
16.07.2018 12:00:00 28,7 8,3 31,8 8 4 47 25 - 1013,6 10 0,0
16.07.2018 11:00:00 27,4 8,2 29,9 8 4 18 10 OZO 1013,9 10 0,0
16.07.2018 10:00:00 26,2 9,1 28,6 8 4 14 8 ZZO 1014,0 10 0,0
16.07.2018 09:00:00 23,3 10,2 25,0 9 5 14 8 OZO 1014,2 10 0,0
16.07.2018 08:00:00 20,2 10,5 20,6 8 4 14 8 O 1014,2 10 0,0
16.07.2018 07:00:00 15,7 11,0 12,5 2 1 4 2 O 1014,4 10 0,0
16.07.2018 06:00:00 12,3 9,7 6,4 4 2 7 4 ZZO 1014,3 10 0,0
16.07.2018 05:00:00 13,6 10,0 6,9 4 2 7 4 O 1014,3 10 0,0
16.07.2018 04:00:00 13,2 10,6 7,3 5 3 7 4 O 1014,3 10 0,0
16.07.2018 03:00:00 14,8 11,8 7,9 4 2 4 2 O 1014,7 10 0,0
16.07.2018 02:00:00 16,1 12,8 8,8 2 1 4 2 ONO 1014,9 10 0,0
16.07.2018 01:00:00 16,9 12,6 9,8 2 1 7 4 ONO 1015,0 10 0,0
16.07.2018 00:00:00 18,7 12,5 12,1 5 3 11 6 NNO 1015,0 10 0,0
15.07.2018 23:00:00 20,0 12,0 14,4 5 3 11 6 NNO 1015,1 10 0,0
15.07.2018 22:00:00 23,4 11,5 21,7 9 5 14 8 N 1014,9 10 0,0
15.07.2018 21:00:00 25,1 9,3 24,3 8 4 18 10 NNO 1014,5 10 0,0
15.07.2018 20:00:00 27,4 7,4 27,6 15 8 25 14 NNO 1014,3 10 0,0
15.07.2018 19:00:00 28,6 7,8 30,6 15 8 25 14 NNO 1014,4 10 0,0
15.07.2018 18:00:00 29,5 8,0 31,8 16 9 29 16 N 1014,6 10 0,0
15.07.2018 17:00:00 28,4 8,3 30,4 15 8 40 21 - 1015,2 10 0,0
15.07.2018 16:00:00 29,7 8,4 32,7 11 6 22 12 OZO 1015,4 10 0,0
15.07.2018 15:00:00 28,9 8,3 31,7 13 7 25 14 - 1015,9 10 0,0
15.07.2018 14:00:00 27,8 8,5 31,9 9 5 29 16 - 1016,6 10 0,0
15.07.2018 13:00:00 27,0 9,1 31,1 9 5 25 14 - 1017,2 10 0,0
15.07.2018 12:00:00 26,2 10,1 29,7 11 6 22 12 - 1017,5 10 0,0
15.07.2018 11:00:00 25,3 10,3 28,7 9 5 22 12 ONO 1017,8 10 0,0
15.07.2018 10:00:00 23,9 10,3 26,5 5 3 18 10 - 1018,0 10 0,0
15.07.2018 09:00:00 21,5 11,7 23,1 9 5 14 8 O 1017,9 10 0,0
15.07.2018 08:00:00 18,9 12,0 19,2 9 5 14 8 O 1017,9 10 0,0
15.07.2018 07:00:00 15,6 12,5 13,1 8 4 11 6 O 1017,8 10 0,0
15.07.2018 06:00:00 12,9 11,7 5,8 5 3 11 6 O 1017,8 10 0,0
15.07.2018 05:00:00 13,2 11,2 6,3 5 3 11 6 ONO 1018,2 10 0,0
15.07.2018 04:00:00 14,0 12,2 7,0 4 2 11 6 - 1018,4 10 0,0
15.07.2018 03:00:00 14,3 12,7 8,5 5 3 11 6 NO 1018,6 10 0,0
15.07.2018 02:00:00 14,9 12,8 12,0 9 5 11 6 NNO 1018,8 10 0,0
15.07.2018 01:00:00 15,5 12,9 12,4 9 5 11 6 NNO 1019,0 10 0,0
15.07.2018 00:00:00 16,7 13,1 15,6 11 6 18 10 NNO 1018,9 10 0,0
14.07.2018 23:00:00 19,1 12,7 18,3 13 7 22 12 N 1018,9 10 0,0
14.07.2018 22:00:00 21,1 11,4 20,2 13 7 22 12 N 1018,6 10 0,0
14.07.2018 21:00:00 23,2 11,0 23,2 16 9 25 14 N 1018,4 10 0,0
14.07.2018 20:00:00 25,2 9,5 26,2 15 8 25 14 N 1018,5 10 0,0
14.07.2018 19:00:00 26,2 10,5 28,1 15 8 25 14 N 1018,6 10 0,0
14.07.2018 18:00:00 26,6 9,3 29,5 11 6 25 14 N 1018,7 10 0,0

tt = temperatuur
td = dauwpunt
tt 5cm = temperatuur 5cm
ff = windsnelheid
fx = windstoten
dd = windrichting
ppp = luchtdruk
vv = zicht
rr = neerslag

Weerstations in de omgeving